This demonstration page uses our WeatherBlox Daily Observations layout. Learn more.

Left ArrowRight Arrow

Hourly Observations for April 19, 2021

Temp ( °F °C ) Dew Point ( °F °C ) Humidity (%) Winds ( mph kmh ) Pressure ( in mb ) Visibility ( mi km ) Precip ( " mm )
12:53 am 00:53 Clear 58 14.4 44 6.7 60 60 NNE 5 7 30.01 1016 10 16 0.00 0.00
1:53 am 01:53 Clear 56 13.3 41 5 57 57 Calm 30.02 1017 10 16 0.00 0.00
2:53 am 02:53 Clear 54 12.2 42 5.6 64 64 Calm 30.02 1017 10 16 0.00 0.00
3:53 am 03:53 Clear 53 11.7 41 5 64 64 Calm 30.03 1017 10 16 0.00 0.00
4:53 am 04:53 Clear 50 10 42 5.6 74 74 Calm 30.03 1017 10 16 0.00 0.00
5:53 am 05:53 Clear 50 10 42 5.6 74 74 NNE 5 7 30.02 1017 10 16 0.00 0.00
6:53 am 06:53 Sunny 52 11.1 41 5 66 66 Calm 30.03 1017 10 16 0.00 0.00
7:53 am 07:53 Sunny 56 13.3 42 5.6 60 60 Calm 30.04 1017 10 16 0.00 0.00
8:53 am 08:53 Sunny 67 19.4 43 6.1 42 42 Calm 30.03 1017 10 16 0.00 0.00
9:53 am 09:53 Sunny 75 23.9 44 6.7 33 33 VRB 5 7 30.01 1016 10 16 0.00 0.00
10:53 am 10:53 Sunny 80 26.7 38 3.3 22 22 NNW 7 11 30.01 1016 10 16 0.00 0.00
11:53 am 11:53 Sunny 83 28.3 38 3.3 20 20 VRB 5 7 30.00 1016 10 16 0.00 0.00
12:53 pm 12:53 Sunny 86 30 37 2.8 18 18 VRB 6 9 29.98 1015 10 16 0.00 0.00
1:53 pm 13:53 Sunny 86 30 38 3.3 18 18 VRB 5 7 29.95 1014 10 16 0.00 0.00
2:53 pm 14:53 Sunny 86 30 36 2.2 17 17 S 7 11 29.92 1013 10 16 0.00 0.00
3:53 pm 15:53 Sunny 88 31.1 34 1.1 15 15 S 8 13 29.89 1012 10 16 0.00 0.00
4:53 pm 16:53 Sunny 88 31.1 32 0 13 13 SW 8 13 29.88 1012 10 16 0.00 0.00
5:53 pm 17:53 Sunny 87 30.6 32 0 14 14 S 7 11 29.86 1011 10 16 0.00 0.00
6:53 pm 18:53 Sunny 85 29.4 38 3.3 19 19 S 10 17 29.85 1011 10 16 0.00 0.00
7:53 pm 19:53 Clear 78 25.6 38 3.3 24 24 S 7 11 29.85 1011 10 16 0.00 0.00
8:53 pm 20:53 Clear 77 25 36 2.2 23 23 SSW 7 11 29.87 1012 10 16 0.00 0.00
9:53 pm 21:53 Clear 74 23.3 31 -0.6 20 20 WNW 5 7 29.88 1012 8 13 0.00 0.00
10:53 pm 22:53 Clear 70 21.1 31 -0.6 23 23 SW 5 7 29.88 1012 10 16 0.00 0.00
11:53 pm 23:53 Clear 65 18.3 33 0.6 31 31 SW 3 6 29.88 1012 10 16 0.00 0.00

Powered by AerisWeather